EHI
0 0 0 0 0 0 0 0 0 0 0 0 0 0 0 0 0 0 0 0 0 0 0 0 0 0 0 0 0 0 0 0 0 0 0 0 0 0 0 0 0 0 0 0
0 0 0 0 0 0 0 0 0 0 0 0 0 0 0 0 0 0 0 0 0 0 0 0 0 0 0 0 0 0 0 0 0 0 0 0 0 0 0 0 0 0 0 0
0 0 0 0 0 0 0 0 0 0 0 0 0 0 0 0 0 0 0 0 0 0 0 0 0 0 0 0 0 0 0 0 0 0 0 0 0 0 0 0 0 0 0 0
0 0 0 0 0 0 0 0 0 0 0 0 0 0 0 0 0 0 0 0 0 0 0 0 0 0 0 0 0 0 0 0 0 0 0 0 0 0 0 0 0 0 0 0
0 0 0 0 0 0 0 0 0 0 0 0 0 0 0 0 0 0 0 0 0 0 0 0 0 0 0 0 0 0 0 0 0 0 0 0 0 0 0 0 0 0 0 0
0 0 0 0 0 0 0 0 0 0 0 0 0 0 0 0 0 0 0 0 0 0 0 0 0 0 0 0 0 0 0 0 0 0 0 0 0 0 0 0 0 0 0 0
0 0 0 0 0 0 0 0 0 0 0 0 0 0 0 0 0 0 0 0 0 0 0 0 0 0 0 0 0 0 0 0 0 0 0 0 0 0 0 0 0 0 0 0
0 0 0 0 0 0 0 0 0 0 0 0 0 0 0 0 0 0 0 0 0 0 0 0 0 0 0 0 0 0 0 0 0 0 0 0 0 0 0 0 0 0 0 0
0 0 0 0 0 0 0 0 0 0 0 0 0 0 0 0 0 0 0 0 0 0 0 0 0 0 0 0 0 0 0 0 0 0 0 0 0 0 0 0 0 0 0 0
0 0 0 0 0 0 0 0 0 0 0 0 0 0 0 0 0 0 0 0 0 0 0 0 0 0 0 0 0 0 0 0 0 0 0 0 0 0 0 0 0 0 0 0
0 0 0 0 0 0 0 0 0 0 0 0 0 0 0 0 0 0 0 0 0 0 0 0 0 0 0 0 0 0 0 0 0 0 0 0 0 0 0 0 0 0 0 0
0 0 0 0 0 0 0 0 0 0 0 0 0 0 0 0 0 0 0 0 0 0 0 0 0 0 0 0 0 0 0 0 0 0 0 0 0 0 0 0 0 0 0 0
0 0 0 0 0 0 0 0 0 0 0 0 0 0 0 0 0 0 0 0 0 0 0 0 0 0 0 0 0 0 0 0 0 0 0 0 0 0 0 0 0 0 0 0
0 0 0 0 0 0 0 0 0 0 0 0 0 0 0 0 0 0 0 0 0 0 0 0 0 0 0 0 0 0 0 0 0 0 0 0 0 0 0 0 0 0 0 0
0 0 0 0 0 0 0 0 0 0 0 0 0 0 0 0 0 0 0 0 0 0 0 0 0 0 0 0 0 0 0 0 0 0 0 0 0 0 0 0 0 0 0 0
0 0 0 0 0 0 0 0 0 0 0 0 0 0 0 0 0 0 0 0 0 0 0 0 0 0 0 0 0 0 0 0 0 0 0 0 0 0 0 0 0 0 0 0
0 0 0 0 0 0 0 0 0 0 0 0 0 0 0 0 0 0 0 0 0 0 0 0 0 0 0 0 0 0 0 0 0 0 0 0 0 0 0 0 0 0 0 0
0 0 0 0 0 0 0 0 0 0 0 0 0 0 0 0 0 0 0 0 0 0 0 0 0 0 0 0 0 0 0 0 0 0 0 0 0 0 0 0 0 0 0 0
0 0 0 0 0 0 0 0 0 0 0 0 0 0 0 0 0 0 0 0 0 0 0 0 0 0 0 0 0 0 0 0 0 0 0 0 0 0 0 0 0 0 0 0
0 0 0 0 0 0 0 0 0 0 0 0 0 0 0 0 0 0 0 0 0 0 0 0 0 0 0 0 0 0 0 0 0 0 0 0 0 0 0 0 0 0 0 0
0 0 0 0 0 0 0 0 0 0 0 0 0 0 0 0 0 0 0 0 0 0 0 0 0 0 0 0 0 0 0 0 0 0 0 0 0 0 0 0 0 0 0 0
0 0 0 0 0 0 0 0 0 0 0 0 0 0 0 0 0 0 0 0 0 0 0 0 0 0 0 0 0 0 0 0 0 0 0 0 0 0 0 0 0 0 0 0
0 0 0 0 0 0 0 0 0 0 0 0 0 0 0 0 0 0 0 0 0 0 0 0 0 0 0 0 0 0 0 0 0 0 0 0 0 0 0 0 0 0 0 0
0 0 0 0 0 0 0 0 0 0 0 0 0 0 0 0 0 0 0 0 0 0 0 0 0 0 0 0 0 0 0 0 0 0 0 0 0 0 0 0 0 0 0 0
0 0 0 0 0 0 0 0 0 0 0 0 0 0 0 0 0 0 0 0 0 0 0 0 0 0 0 0 0 0 0 0 0 0 0 0 0 0 0 0 0 0 0 0
0 0 0 0 0 0 0 0 0 0 0 0 0 0 0 0 0 0 0 0 0 0 0 0 0 0 0 0 0 0 0 0 0 0 0 0 0 0 0 0 0 0 0 0
Wind_Speed
3 4 5 6 7 10 10 11 13 13 9 9 15 19 18 15 15 15 14 14 14 14 14 12 12 13 14 15 16 17 16 15 13 11 11 11 11 10 10 10 12 13 13 13
4 6 7 6 7 8 9 11 12 10 7 9 14 18 17 15 15 15 15 15 15 13 11 11 11 12 14 15 16 17 18 16 16 13 12 11 11 9 9 9 11 14 14 13
6 6 5 5 6 8 9 10 10 10 9 9 11 14 13 12 13 13 14 14 14 13 12 11 11 13 14 16 17 16 18 17 17 15 11 9 8 8 9 11 11 13 14 14
6 5 5 6 7 8 9 7 8 9 7 6 6 9 10 8 9 10 11 11 12 12 11 10 10 12 14 16 15 17 17 17 17 16 14 16 13 12 13 12 11 13 15 15
5 4 6 8 8 7 7 6 8 10 9 8 8 9 8 5 8 8 9 9 9 8 9 9 9 10 12 13 13 15 16 16 17 17 18 18 15 13 11 12 14 14 13 15
8 6 6 6 6 6 5 6 7 6 5 7 7 8 7 3 6 6 6 7 7 7 7 7 7 7 9 10 11 13 15 16 16 18 19 20 19 17 15 15 14 13 11 12
6 4 3 4 5 3 3 3 2 3 4 6 3 7 7 3 4 5 6 5 5 5 5 6 6 6 7 9 11 12 15 15 16 18 19 21 21 19 18 17 15 14 12 12
6 4 1 2 3 4 4 4 3 4 5 5 5 8 3 3 4 4 4 5 5 5 5 5 5 6 7 8 10 12 15 15 16 18 18 19 20 15 14 16 14 14 12 13
5 6 2 3 4 4 4 4 4 5 6 7 6 6 5 4 5 6 7 7 7 6 6 6 5 5 6 7 8 11 14 15 15 17 17 17 19 18 16 16 16 13 13 12
4 7 5 4 4 5 6 3 3 4 5 7 7 8 4 4 5 6 7 8 8 9 7 7 6 5 6 6 6 9 11 13 15 15 15 13 17 18 17 16 17 16 16 15
3 5 5 3 4 5 5 4 4 4 5 6 7 5 1 3 4 6 6 7 8 9 9 8 7 6 6 5 5 6 8 11 12 13 14 14 15 16 16 16 17 16 16 16
4 4 6 7 5 4 6 6 6 5 6 7 8 6 2 3 5 6 7 7 8 9 9 8 7 6 5 5 4 5 6 8 10 11 12 14 15 15 16 16 17 16 16 16
3 4 6 5 4 3 4 6 6 6 7 8 10 8 2 5 7 7 8 9 9 9 9 9 7 6 6 6 5 5 6 7 8 9 11 12 14 15 16 16 16 16 16 15
5 6 8 10 7 4 7 8 8 9 9 11 14 15 12 11 10 10 10 10 10 9 9 9 8 7 7 6 6 5 5 5 6 7 9 11 13 14 15 15 15 15 16 15
5 7 10 13 14 12 14 15 14 15 15 15 16 17 16 14 12 11 10 10 10 9 9 9 9 8 8 7 7 6 5 5 5 7 8 10 11 12 12 13 13 14 14 15
4 7 8 12 13 14 17 19 19 19 18 19 19 20 16 14 12 11 10 10 10 9 9 9 9 8 8 7 7 7 6 5 5 5 7 8 9 9 10 11 11 12 13 13
5 5 6 9 9 11 15 15 17 15 14 14 17 16 12 12 11 10 10 10 9 9 9 9 8 8 8 7 7 7 7 5 5 5 6 6 7 8 9 9 10 11 12 13
8 7 5 7 6 13 8 3 8 11 12 12 12 12 11 11 10 9 8 9 9 9 8 8 8 8 8 8 7 7 7 6 5 5 5 5 6 7 8 9 10 11 10 11
12 8 6 5 9 13 10 7 7 9 10 10 11 11 10 10 9 7 6 7 8 9 8 8 8 8 8 7 7 7 7 6 5 5 5 5 6 7 7 9 10 10 10 10
10 10 8 7 8 10 6 1 3 5 8 6 8 8 7 7 7 6 6 8 9 9 8 8 8 8 7 7 7 6 7 6 6 6 6 6 6 7 8 9 9 9 9 9
7 8 11 12 11 11 6 2 4 7 5 1 5 6 7 8 8 9 9 9 9 9 9 8 8 8 7 7 7 7 7 7 7 6 6 6 6 7 8 7 7 8 8 8
10 8 10 9 11 11 4 6 7 7 4 4 6 7 8 10 10 10 10 9 9 9 9 8 8 8 7 7 7 7 7 7 7 6 6 6 6 5 5 7 7 7 8 9
11 10 7 10 10 6 5 8 7 7 8 8 8 9 9 10 11 10 10 10 9 9 9 8 8 8 8 7 7 8 8 8 7 6 6 5 5 5 6 6 7 7 8 7
8 8 9 11 13 12 11 11 11 10 11 10 10 10 10 11 12 11 10 9 9 9 8 8 8 8 8 8 8 7 8 7 6 6 6 4 4 5 5 5 5 6 7 7
9 8 10 14 14 13 13 13 13 12 12 12 11 11 11 12 12 11 10 10 9 8 8 7 8 9 9 9 9 8 7 6 6 6 5 4 4 4 5 4 4 5 6 6
11 12 12 12 11 11 12 11 11 12 12 12 12 12 11 11 12 11 10 9 9 9 8 8 8 9 9 9 9 8 6 6 5 5 4 3 3 3 3 3 2 2 4 5
Wind_Direction
231 238 254 264 260 274 274 267 269 275 279 272 270 270 273 265 250 247 246 249 247 243 242 231 224 216 210 206 202 198 197 196 189 185 181 181 184 184 186 187 188 189 190 189
251 253 270 269 266 270 268 269 271 281 284 277 278 275 270 260 247 244 244 244 248 244 238 229 221 213 209 207 204 201 199 196 193 193 188 188 186 187 187 187 192 193 193 193
269 295 289 264 265 270 270 268 276 287 296 279 282 276 260 251 249 246 245 245 245 241 235 227 220 215 211 209 206 202 199 199 197 194 186 180 180 181 188 193 194 197 195 195
268 287 278 269 271 275 277 275 278 282 279 282 276 284 275 264 251 246 244 244 243 238 235 230 221 218 217 213 206 203 199 201 199 195 190 186 189 192 195 192 193 194 196 197
270 280 284 275 276 273 269 285 273 271 268 272 257 259 269 263 256 251 246 246 248 243 238 236 225 223 223 216 207 203 201 201 200 197 194 193 199 202 195 191 194 195 196 199
270 273 276 278 281 272 271 278 269 255 249 250 246 250 266 251 265 269 261 254 250 245 238 236 231 229 230 218 209 204 202 203 201 200 198 198 201 200 195 194 193 194 195 198
288 243 243 265 282 250 230 272 272 237 225 246 253 253 259 294 293 282 281 279 285 272 252 242 239 229 232 221 212 207 205 205 203 202 203 202 203 202 201 197 197 194 195 197
305 288 238 259 258 271 242 245 263 279 272 286 264 249 260 336 324 314 312 319 321 311 288 267 253 238 233 227 215 210 208 208 206 205 206 205 203 203 204 202 199 199 199 200
285 287 307 274 269 248 240 232 273 278 281 269 247 260 275 306 328 340 344 345 339 331 320 299 278 263 253 240 224 217 212 210 208 208 207 208 204 204 205 203 203 203 204 201
264 280 281 284 256 231 245 274 240 234 263 264 260 263 271 312 330 346 349 345 339 334 328 321 306 289 272 255 243 229 220 215 212 209 207 208 207 206 205 203 204 204 203 201
237 267 283 257 235 248 222 223 235 239 256 274 273 268 326 314 332 333 333 333 333 332 329 323 317 306 290 273 250 236 231 222 216 213 209 209 209 207 206 206 207 205 204 201
230 257 271 264 268 271 245 240 234 244 247 254 273 273 310 300 324 328 328 331 331 331 330 325 319 317 311 295 268 249 240 234 225 216 212 211 208 207 207 207 207 206 205 203
218 233 273 252 202 200 235 238 239 257 265 254 257 262 294 305 317 323 325 329 331 333 335 333 329 324 318 309 297 274 254 245 235 224 217 215 209 207 207 208 207 204 203 203
243 230 239 263 286 279 259 252 243 240 250 255 253 268 279 293 302 309 314 318 322 328 332 333 331 328 324 315 303 291 282 266 248 230 221 219 213 209 209 208 206 204 200 199
240 252 250 261 270 267 264 262 254 243 246 255 266 269 277 287 293 297 302 308 312 321 328 331 328 326 325 324 314 304 297 290 270 239 226 224 219 212 210 209 205 202 200 198
235 258 266 266 264 264 265 262 256 251 250 253 262 267 275 283 286 287 296 303 307 315 321 324 323 320 321 322 320 310 301 295 280 253 235 228 220 212 207 206 205 199 198 196
225 241 262 270 278 278 261 253 246 244 243 249 255 264 281 281 280 284 292 298 302 309 316 319 319 317 315 315 313 307 298 290 275 260 245 234 223 213 209 203 201 198 196 193
227 228 246 272 270 248 258 269 252 251 253 250 254 268 279 283 283 285 293 298 301 308 311 312 314 315 312 307 307 304 297 286 273 261 253 240 225 215 208 203 202 199 195 194
221 223 235 246 259 270 270 253 238 243 257 250 253 264 275 283 282 276 291 302 302 303 306 307 310 310 309 307 306 301 293 286 275 261 255 245 228 216 207 203 202 199 193 192
211 219 233 235 250 259 271 230 224 244 258 241 246 259 276 285 275 286 312 310 305 303 304 307 308 308 308 311 311 298 289 283 279 276 266 251 230 219 210 206 202 197 194 192
188 209 224 235 247 261 270 223 186 227 260 213 240 257 271 271 274 295 302 302 304 303 304 307 305 305 307 310 311 300 290 283 284 285 276 255 232 223 214 205 200 194 188 185
199 203 211 220 234 249 203 177 216 253 285 255 260 269 276 279 283 288 294 298 303 303 304 307 304 304 308 308 307 303 296 294 290 282 273 253 233 220 211 200 196 190 183 182
216 215 217 219 235 258 213 221 245 268 269 269 270 275 277 280 281 284 288 293 298 299 299 302 302 302 305 306 303 299 301 303 294 282 269 253 236 216 205 197 191 185 182 181
227 226 237 248 252 256 257 258 263 264 266 271 274 278 278 278 279 282 285 286 289 293 297 299 299 299 302 306 301 296 300 301 290 278 267 247 226 211 201 193 189 186 185 180
231 210 231 248 260 268 259 258 264 269 269 271 275 274 274 276 276 278 281 281 283 286 290 292 290 294 297 302 299 298 300 299 289 278 264 244 224 209 202 196 192 194 197 189
224 223 230 246 253 256 268 271 271 267 267 269 272 274 273 270 272 274 274 275 277 279 283 286 285 287 292 296 295 296 299 293 286 278 268 243 217 204 196 183 167 156 175 164